Printer-friendly version

IAU Minor Planet Center

Minor Planet Center

MPEC 2007-M33 : 2007 ML6

The following Minor Planet Electronic Circular may be linked-to from your own Web pages, but must not otherwise be redistributed electronically.


Read MPEC 2007-M32 Read MPEC 2007-M34


M.P.E.C. 2007-M33                                Issued 2007 June 23, 16:12 UT

     The Minor Planet Electronic Circulars contain information on unusual
         minor planets and routine data on comets.  They are published
   on behalf of Commission 20 of the International Astronomical Union by the
          Minor Planet Center, Smithsonian Astrophysical Observatory,
                          Cambridge, MA 02138, U.S.A.

             Prepared using the Tamkin Foundation Computer Network

                              MPC@CFA.HARVARD.EDU
          URL http://www.cfa.harvard.edu/iau/mpc.html  ISSN 1523-6714

                                   2007 ML6

Observations:
     K07M06L* C2007 06 21.37695 21 24 19.39 -11 03 06.4          20.2   EM033704
     K07M06L  C2007 06 21.38674 21 24 21.38 -11 03 11.7          19.8   EM033704
     K07M06L  C2007 06 21.39679 21 24 23.21 -11 03 17.4          19.6   EM033704
     K07M06L  C2007 06 21.40664 21 24 25.20 -11 03 23.7          19.9   EM033704
     K07M06L  C2007 06 22.04481 21 26 34.62 -11 09 42.2          18.9 V EM033A55
     K07M06L  C2007 06 22.05054 21 26 35.75 -11 09 45.3          18.8 V EM033A55
     K07M06L  C2007 06 22.05626 21 26 36.88 -11 09 48.5          18.8 V EM033A55
     K07M06L  C2007 06 22.30253 21 27 27.77 -11 12 13.6          18.5 R EM033651
     K07M06L  C2007 06 22.30542 21 27 28.34 -11 12 15.2          18.7 R EM033651
     K07M06L  C2007 06 22.30830 21 27 28.94 -11 12 17.8          18.8 R EM033651
     K07M06L  C2007 06 22.32081 21 27 30.97 -11 12 27.2          18.6 R EM033850
     K07M06L  C2007 06 22.33712 21 27 34.22 -11 12 37.7          18.2 R EM033850
     K07M06L  C2007 06 22.34796 21 27 36.50 -11 12 44.8          18.1 R EM033H36
     K07M06L  C2007 06 22.35400 21 27 37.64 -11 12 48.5          18.0 R EM033H36
     K07M06L  C2007 06 22.36004 21 27 38.87 -11 12 51.5          18.0 R EM033H36
     K07M06L  C2007 06 22.36513 21 27 39.72 -11 12 54.6          18.5 R EM033850
     K07M06L 5C2007 06 22.37025 21 27 41.33 -11 12 56.5          18.2 R EM033673
     K07M06L 5C2007 06 22.37303 21 27 41.87 -11 12 58.2                 EM033673
     K07M06L 5C2007 06 22.37720 21 27 42.71 -11 13 00.9                 EM033673
     K07M06L 5C2007 06 22.38137 21 27 43.53 -11 13 03.4                 EM033673
     K07M06L 5C2007 06 22.38553 21 27 44.35 -11 13 05.8                 EM033673
     K07M06L  C2007 06 23.34285 21 31 01.40 -11 23 06.4          19.2 V EM033850
     K07M06L  C2007 06 23.35740 21 31 04.40 -11 23 16.1          17.9 V EM033850
     K07M06L 5C2007 06 23.36250 21 31 05.99 -11 23 17.5          18.8 R EM033673
     K07M06L 5C2007 06 23.36759 21 31 06.99 -11 23 21.1                 EM033673
     K07M06L 5C2007 06 23.37257 21 31 08.00 -11 23 24.8                 EM033673
     K07M06L  C2007 06 23.37281 21 31 07.45 -11 23 26.1          18.5 V EM033850
     K07M06L 5C2007 06 23.37674 21 31 08.79 -11 23 27.4                 EM033673

Observer details:
651 Grasslands Observatory, Tucson.  Observer J. E. McGaha.  0.62-m f/5.1
    Newtonian reflector + CCD.
673 Table Mountain Observatory, Wrightwood.  Observers H. Rhoades, J. Young.
    0.61-m f/16 Cassegrain + CCD.
704 Lincoln Laboratory ETS, New Mexico.  Observers M. Bezpalko, D. Torres,
    R. Kracke, G. Spitz, J. Kistler.  Measurers J. Stuart, S. Scruggs.  1.0-m
    f/2.15 reflector + CCD.
850 Cordell-Lorenz Observatory, Sewanee.  Observer D. T. Durig.  0.30-m f/6
    Ritchey-Chretien + 1530x1020 CCD, 0.35-m f/8.2 Ritchey-Chretien + 1Kx1K
    CCD.
A55 Osservatorio Astronomico Vallemare di Borbona.  Observer V. S. Casulli.
    0.40-m f/4.5 Newtonian reflector + CCD.
H36 Sandlot Observatory, Scranton.  Observer G. Hug.  0.30-m
    Schmidt-Cassegrain + CCD.

Orbital elements:
2007 ML6                                                 Earth MOID = 0.2195 AU
Epoch 2007 Apr. 10.0 TT = JDT 2454200.5                 MPC
M 325.38831              (2000.0)            P               Q
n   0.27275662     Peri.  220.04561     +0.85635560     +0.48001364
a   2.3547918      Node   110.28735     -0.40643162     +0.85395131
e   0.4910800      Incl.   11.71034     -0.31854108     +0.20088320
P   3.61           H   18.5           G   0.15           U   9
Residuals in seconds of arc
070621 704  0.2-  0.2-    070622 850  0.1+  0.2-    070622 673  0.2-  0.2+
070621 704  1.0+  0.3+    070622 850  0.4+  0.7-    070623 850  0.4-  0.0
070621 704  0.9-  0.5+    070622 H36  0.0   0.4-    070623 850  0.8+  0.3-
070621 704  0.2+  0.1-    070622 H36  0.8-  0.4-    070623 673  0.4+  0.7+
070622 A55  0.0   0.3-    070622 H36  0.3-  0.4+    070623 673  0.0   0.4+
070622 A55  0.0   0.0     070622 850  0.0   0.4-    070623 673  0.0   0.0
070622 A55  0.0   0.3+    070622 673  0.0   0.0     070623 850  0.2+  0.4-
070622 651  0.2+  0.2+    070622 673  0.1-  0.1+    070623 673  0.7-  0.1+
070622 651  0.1+  0.4+    070622 673  0.0   0.0
070622 651  0.5+  0.4-    070622 673  0.1-  0.1+

Ephemeris:
2007 ML6                 a,e,i = 2.35, 0.49, 12                  q = 1.1984
Date    TT    R. A. (2000) Decl.     Delta      r     Elong.  Phase     V
2007 06 19    21 16.47   -10 41.4    0.451    1.346   128.9    36.0    18.9
2007 06 29    21 51.50   -12 32.3    0.385    1.302   131.0    36.1    18.5
2007 07 09    22 32.35   -15 19.1    0.333    1.264   132.0    36.7    18.1
2007 07 19    23 18.74   -18 52.8    0.298    1.234   131.5    38.1    17.9
2007 07 29    00 08.16   -22 40.5    0.280    1.213   129.4    40.3    17.7
2007 08 08    00 55.78   -26 01.1    0.277    1.201   126.8    42.5    17.8
2007 08 18    01 36.32   -28 31.8    0.285    1.199   125.0    43.8    17.9
2007 08 28    02 06.71   -30 09.4    0.301    1.207   124.6    43.5    18.0
2007 09 07    02 26.28   -31 02.1    0.321    1.225   126.0    41.7    18.1
2007 09 17    02 35.69   -31 13.4    0.345    1.252   129.0    38.6    18.2
2007 09 27    02 36.73   -30 38.1    0.373    1.287   133.1    34.7    18.3
2007 10 07    02 31.77   -29 11.6    0.407    1.329   137.6    30.5    18.5
2007 10 17    02 23.55   -26 50.9    0.448    1.376   141.5    26.8    18.7
2007 10 27    02 14.98   -23 42.3    0.501    1.429   143.6    24.4    18.9
2007 11 06    02 08.12   -20 01.1    0.567    1.485   143.2    23.6    19.2
2007 11 16    02 04.18   -16 04.0    0.647    1.543   140.3    24.2    19.6
2007 11 26    02 03.56   -12 05.8    0.742    1.604   135.6    25.5    20.0
2007 12 06    02 06.07   -08 16.9    0.852    1.666   129.9    27.0    20.5
2007 12 16    02 11.34   -04 42.0    0.977    1.729   123.7    28.3    20.9
2007 12 26    02 18.96   -01 23.2    1.113    1.792   117.3    29.2    21.3
2008 01 05    02 28.49   +01 39.1    1.261    1.855   110.9    29.7    21.6
2008 01 15    02 39.61   +04 25.9    1.417    1.918   104.6    29.8    22.0

Gareth V. Williams           (C) Copyright 2007 MPC           M.P.E.C. 2007-M33

Read MPEC 2007-M32 Read MPEC 2007-M34


Our Web policy. Index to the CBAT/MPC/ICQ pages.


Valid HTML 4.01!